ZKEAN NZAR-NZTG

Flight info

Callsign ZKEAN
Flight time 0h 40m
Altitude 8000
Route AR387 DCT SABAV DCT MERAS DCT OSTEL DCT PAERA/N0180F090 DCT WAIHI/N0178F080 DCT RUSTA DCT TENIX
Aircraft DA42/L-SBDGRY/S

Departure

Time 2026-04-28 05:56
Airport Ardmore Airport (NZAR)

Arrival

Time 2026-04-28 06:37
Airport Tauranga Airport (NZTG)
Time Latitude Longitude Altitude Speed Heading
2026-04-28 05:32 -37.03637 174.96997 106 ft 0 kts 226°
2026-04-28 05:46 -37.03642 174.97000 105 ft 3 kts 99°
2026-04-28 05:46 -37.03614 174.96996 105 ft 5 kts 326°
2026-04-28 05:47 -37.03587 174.96965 106 ft 5 kts 313°
2026-04-28 05:47 -37.03556 174.96939 107 ft 8 kts
2026-04-28 05:47 -37.03526 174.96971 106 ft 0 kts 46°
2026-04-28 05:54 -37.03532 174.96976 106 ft 4 kts 223°
2026-04-28 05:55 -37.03544 174.96947 107 ft 3 kts 295°
2026-04-28 05:55 -37.03528 174.96929 108 ft 4 kts 332°
2026-04-28 05:55 -37.03476 174.96951 107 ft 12 kts 46°
2026-04-28 05:55 -37.03357 174.97103 110 ft 54 kts 45°
2026-04-28 05:56 -37.02975 174.97588 168 ft 94 kts 45°
2026-04-28 05:56 -37.02483 174.98177 484 ft 99 kts 44°
2026-04-28 05:56 -37.02053 174.98864 755 ft 110 kts 62°
2026-04-28 05:56 -37.01708 174.99739 1040 ft 114 kts 62°
2026-04-28 05:57 -37.01341 175.00644 1326 ft 119 kts 62°
2026-04-28 05:57 -37.00947 175.01579 1606 ft 123 kts 61°
2026-04-28 05:57 -37.00542 175.02524 1885 ft 123 kts 61°
2026-04-28 05:57 -37.00144 175.03484 2159 ft 125 kts 68°
2026-04-28 05:58 -37.00045 175.04560 2441 ft 127 kts 97°
2026-04-28 05:58 -37.00381 175.05569 2726 ft 130 kts 126°
2026-04-28 05:58 -37.01007 175.06399 3003 ft 132 kts 132°
2026-04-28 05:58 -37.01651 175.07218 3282 ft 133 kts 133°
2026-04-28 05:59 -37.02298 175.08039 3564 ft 133 kts 133°
2026-04-28 05:59 -37.02946 175.08861 3835 ft 133 kts 133°
2026-04-28 05:59 -37.03592 175.09682 4110 ft 132 kts 133°
2026-04-28 05:59 -37.04240 175.10507 4391 ft 133 kts 134°
2026-04-28 06:00 -37.04889 175.11335 4672 ft 133 kts 134°
2026-04-28 06:00 -37.05536 175.12159 4954 ft 133 kts 134°
2026-04-28 06:00 -37.06185 175.12987 5232 ft 133 kts 134°
2026-04-28 06:00 -37.06838 175.13820 5507 ft 134 kts 134°
2026-04-28 06:01 -37.07495 175.14657 5785 ft 135 kts 134°
2026-04-28 06:01 -37.08158 175.15505 6061 ft 137 kts 134°
2026-04-28 06:01 -37.08825 175.16356 6345 ft 137 kts 134°
2026-04-28 06:01 -37.09496 175.17212 6628 ft 138 kts 134°
2026-04-28 06:02 -37.10169 175.18072 6901 ft 138 kts 134°
2026-04-28 06:02 -37.10846 175.18938 7166 ft 139 kts 134°
2026-04-28 06:02 -37.11515 175.19792 7433 ft 139 kts 134°
2026-04-28 06:02 -37.12196 175.20662 7703 ft 140 kts 134°
2026-04-28 06:03 -37.12879 175.21535 7974 ft 140 kts 134°
2026-04-28 06:03 -37.13592 175.22446 8025 ft 154 kts 134°
2026-04-28 06:03 -37.14371 175.23443 8029 ft 165 kts 134°
2026-04-28 06:03 -37.15187 175.24488 8031 ft 170 kts 134°
2026-04-28 06:04 -37.16020 175.25556 8031 ft 173 kts 134°
2026-04-28 06:04 -37.16869 175.26642 8030 ft 175 kts 134°
2026-04-28 06:04 -37.17724 175.27738 8031 ft 176 kts 134°
2026-04-28 06:04 -37.18582 175.28837 8031 ft 176 kts 134°
2026-04-28 06:05 -37.19445 175.29934 8030 ft 176 kts 137°
2026-04-28 06:05 -37.20347 175.30970 8030 ft 174 kts 136°
2026-04-28 06:05 -37.21189 175.31974 8029 ft 169 kts 136°
2026-04-28 06:05 -37.22039 175.32978 8028 ft 166 kts 136°
2026-04-28 06:06 -37.22878 175.33964 8026 ft 164 kts 136°
2026-04-28 06:06 -37.23712 175.34943 8026 ft 164 kts 136°
2026-04-28 06:06 -37.24542 175.35917 8025 ft 163 kts 136°
2026-04-28 06:06 -37.25367 175.36886 8025 ft 162 kts 136°
2026-04-28 06:07 -37.26192 175.37855 8027 ft 162 kts 136°
2026-04-28 06:07 -37.27013 175.38819 8026 ft 162 kts 136°
2026-04-28 06:07 -37.27835 175.39786 8026 ft 162 kts 136°
2026-04-28 06:07 -37.28657 175.40752 8027 ft 162 kts 136°
2026-04-28 06:08 -37.29477 175.41717 8025 ft 162 kts 136°
2026-04-28 06:08 -37.30297 175.42681 8030 ft 161 kts 136°
2026-04-28 06:08 -37.31101 175.43628 8029 ft 158 kts 137°
2026-04-28 06:08 -37.31871 175.44530 7957 ft 148 kts 137°
2026-04-28 06:09 -37.32638 175.45434 7704 ft 153 kts 136°
2026-04-28 06:09 -37.33419 175.46355 7456 ft 155 kts 136°
2026-04-28 06:09 -37.34207 175.47284 7219 ft 156 kts 137°
2026-04-28 06:09 -37.35000 175.48220 6976 ft 157 kts 137°
2026-04-28 06:10 -37.35795 175.49157 6740 ft 157 kts 137°
2026-04-28 06:10 -37.36590 175.50095 6477 ft 157 kts 137°
2026-04-28 06:10 -37.37383 175.51031 6220 ft 156 kts 137°
2026-04-28 06:10 -37.38173 175.51963 5965 ft 155 kts 137°
2026-04-28 06:11 -37.38961 175.52893 5712 ft 155 kts 137°
2026-04-28 06:11 -37.39746 175.53820 5461 ft 154 kts 137°
2026-04-28 06:11 -37.40528 175.54744 5212 ft 154 kts 137°
2026-04-28 06:11 -37.41306 175.55664 4999 ft 151 kts 137°
2026-04-28 06:12 -37.42033 175.56523 4999 ft 137 kts 137°
2026-04-28 06:12 -37.42698 175.57311 4996 ft 129 kts 137°
2026-04-28 06:12 -37.43344 175.58075 4999 ft 123 kts 137°
2026-04-28 06:12 -37.43967 175.58814 5013 ft 128 kts 137°
2026-04-28 06:13 -37.44636 175.59607 5011 ft 140 kts 137°
2026-04-28 06:13 -37.45362 175.60464 5012 ft 147 kts 137°
2026-04-28 06:13 -37.46117 175.61355 5015 ft 150 kts 137°
2026-04-28 06:13 -37.46884 175.62263 5012 ft 153 kts 137°
2026-04-28 06:14 -37.47664 175.63187 5016 ft 155 kts 137°
2026-04-28 06:14 -37.48450 175.64118 5015 ft 155 kts 137°
2026-04-28 06:14 -37.49238 175.65051 5015 ft 155 kts 137°
2026-04-28 06:14 -37.50024 175.65984 5016 ft 155 kts 137°
2026-04-28 06:15 -37.50811 175.66917 5014 ft 156 kts 137°
2026-04-28 06:15 -37.51600 175.67853 5014 ft 156 kts 137°
2026-04-28 06:15 -37.52391 175.68791 5012 ft 156 kts 137°
2026-04-28 06:15 -37.53150 175.69766 5008 ft 156 kts 126°
2026-04-28 06:16 -37.53569 175.71023 5009 ft 156 kts 105°
2026-04-28 06:16 -37.53828 175.72318 5009 ft 153 kts 104°
2026-04-28 06:16 -37.54082 175.73618 5009 ft 152 kts 104°
2026-04-28 06:16 -37.54335 175.74912 5009 ft 152 kts 104°
2026-04-28 06:17 -37.54588 175.76201 5007 ft 151 kts 104°
2026-04-28 06:17 -37.54840 175.77486 5008 ft 151 kts 104°
2026-04-28 06:17 -37.55092 175.78770 5008 ft 151 kts 104°
2026-04-28 06:18 -37.55595 175.81333 5009 ft 150 kts 104°
2026-04-28 06:18 -37.55846 175.82610 5012 ft 150 kts 104°
2026-04-28 06:18 -37.56096 175.83888 5008 ft 150 kts 104°
2026-04-28 06:18 -37.56347 175.85167 5008 ft 150 kts 104°
2026-04-28 06:19 -37.56600 175.86447 5014 ft 151 kts 104°
2026-04-28 06:19 -37.56850 175.87735 5009 ft 151 kts 104°
2026-04-28 06:19 -37.57099 175.89020 5013 ft 149 kts 104°
2026-04-28 06:19 -37.57339 175.90241 5003 ft 139 kts 104°
2026-04-28 06:20 -37.57563 175.91389 5004 ft 131 kts 104°
2026-04-28 06:20 -37.57775 175.92476 5006 ft 127 kts 104°
2026-04-28 06:20 -37.57984 175.93550 5006 ft 125 kts 104°
2026-04-28 06:20 -37.58189 175.94602 5004 ft 123 kts 104°
2026-04-28 06:21 -37.58471 175.95598 5001 ft 120 kts 129°
2026-04-28 06:21 -37.59160 175.96134 5022 ft 117 kts 156°
2026-04-28 06:21 -37.59695 175.96873 5014 ft 117 kts 108°
2026-04-28 06:21 -37.59640 175.97880 5023 ft 117 kts 70°
2026-04-28 06:22 -37.59505 175.98883 5023 ft 116 kts 90°
2026-04-28 06:22 -37.59524 175.99905 5022 ft 117 kts 93°
2026-04-28 06:22 -37.59567 176.00927 5022 ft 117 kts 94°
2026-04-28 06:22 -37.59618 176.01950 5022 ft 117 kts 95°
2026-04-28 06:23 -37.59673 176.02969 5020 ft 116 kts 95°
2026-04-28 06:23 -37.59727 176.03976 5023 ft 115 kts 94°
2026-04-28 06:23 -37.59781 176.04971 5019 ft 115 kts 95°
2026-04-28 06:23 -37.59837 176.05975 5021 ft 115 kts 95°
2026-04-28 06:24 -37.59892 176.06978 5020 ft 115 kts 95°
2026-04-28 06:24 -37.59947 176.07989 5025 ft 118 kts 95°
2026-04-28 06:24 -37.60006 176.09097 5022 ft 136 kts 95°
2026-04-28 06:24 -37.60076 176.10338 5020 ft 147 kts 94°
2026-04-28 06:25 -37.60148 176.11654 5026 ft 153 kts 95°
2026-04-28 06:25 -37.60222 176.13010 5014 ft 153 kts 94°
2026-04-28 06:25 -37.60295 176.14324 5011 ft 147 kts 95°
2026-04-28 06:25 -37.60364 176.15595 5009 ft 143 kts 95°
2026-04-28 06:26 -37.60430 176.16833 5009 ft 140 kts 94°
2026-04-28 06:26 -37.60496 176.18051 5007 ft 138 kts 94°
2026-04-28 06:26 -37.60560 176.19253 5009 ft 137 kts 94°
2026-04-28 06:26 -37.60624 176.20449 5003 ft 136 kts 94°
2026-04-28 06:27 -37.60688 176.21638 5008 ft 136 kts 95°
2026-04-28 06:27 -37.60751 176.22823 5008 ft 135 kts 95°
2026-04-28 06:27 -37.60815 176.24005 5007 ft 135 kts 95°
2026-04-28 06:27 -37.60857 176.24786 5007 ft 135 kts 95°
2026-04-28 06:28 -37.60943 176.26406 4840 ft 145 kts 95°
2026-04-28 06:28 -37.60990 176.27266 4687 ft 151 kts 94°
2026-04-28 06:28 -37.61061 176.28616 4455 ft 157 kts 94°
2026-04-28 06:28 -37.61134 176.30005 4199 ft 160 kts 94°
2026-04-28 06:29 -37.61209 176.31415 3947 ft 162 kts 94°
2026-04-28 06:29 -37.61307 176.33264 3613 ft 156 kts 94°
2026-04-28 06:29 -37.61378 176.34606 3361 ft 152 kts 93°
2026-04-28 06:29 -37.61426 176.35499 3189 ft 150 kts 94°
2026-04-28 06:30 -37.61741 176.36742 2933 ft 150 kts 121°
2026-04-28 06:30 -37.62478 176.37649 2679 ft 150 kts 149°
2026-04-28 06:30 -37.63461 176.38008 2513 ft 143 kts 178°
2026-04-28 06:30 -37.64395 176.37957 2509 ft 129 kts 183°
2026-04-28 06:31 -37.65250 176.37893 2502 ft 118 kts 184°
2026-04-28 06:31 -37.66076 176.37828 2366 ft 121 kts 184°
2026-04-28 06:31 -37.66924 176.37753 2192 ft 124 kts 191°
2026-04-28 06:31 -37.67685 176.37282 2036 ft 123 kts 226°
2026-04-28 06:32 -37.68088 176.36402 2012 ft 111 kts 258°
2026-04-28 06:32 -37.68112 176.35482 2015 ft 102 kts 274°
2026-04-28 06:32 -37.68071 176.34563 2027 ft 108 kts 275°
2026-04-28 06:32 -37.68023 176.33599 2027 ft 112 kts 275°
2026-04-28 06:33 -37.67972 176.32605 2019 ft 114 kts 275°
2026-04-28 06:33 -37.67923 176.31639 2012 ft 102 kts 275°
2026-04-28 06:33 -37.67882 176.30818 2004 ft 86 kts 275°
2026-04-28 06:33 -37.67847 176.30107 2001 ft 80 kts 275°
2026-04-28 06:34 -37.67812 176.29375 2011 ft 85 kts 275°
2026-04-28 06:34 -37.67771 176.28591 1918 ft 95 kts 275°
2026-04-28 06:34 -37.67723 176.27699 1614 ft 107 kts 275°
2026-04-28 06:34 -37.67667 176.26771 1113 ft 103 kts 276°
2026-04-28 06:35 -37.67608 176.25949 851 ft 84 kts 273°
2026-04-28 06:35 -37.67584 176.25193 726 ft 87 kts 273°
2026-04-28 06:35 -37.67552 176.24437 598 ft 85 kts 274°
2026-04-28 06:35 -37.67518 176.23711 439 ft 83 kts 274°
2026-04-28 06:36 -37.67483 176.22974 347 ft 83 kts 274°
2026-04-28 06:36 -37.67448 176.22248 253 ft 83 kts 274°
2026-04-28 06:36 -37.67413 176.21555 157 ft 76 kts 275°
2026-04-28 06:36 -37.67382 176.20913 51 ft 72 kts 275°
2026-04-28 06:37 -37.67351 176.20336 16 ft 52 kts 273°
2026-04-28 06:37 -37.67330 176.19956 16 ft 41 kts 274°
2026-04-28 06:37 -37.67301 176.19758 20 ft 10 kts 349°
2026-04-28 06:37 -37.67258 176.19759 20 ft 0 kts
2026-04-28 06:38 -37.67251 176.19760 20 ft 4 kts
2026-04-28 06:38 -37.67192 176.19772 20 ft 13 kts 40°
2026-04-28 06:38 -37.67174 176.19897 18 ft 13 kts 54°
2026-04-28 06:39 -37.67156 176.19903 18 ft 0 kts 267°